KQ7A Weather Reports


time (UTC)temp
C
wind
direction
speed
KPH
gust
KPH
rain 1hr
cm
rain 24hr
cm
rain mn
cm
humidity
%
barometer
mb
20260506015848 12 233 0.0 0.0 0.00 0.48 0.48 69 1014.1
20260506015345 12 228 0.0 0.0 0.00 0.48 0.48 67 1013.9
20260506014842 12 239 0.0 0.0 0.00 0.48 0.48 70 1013.8
20260506014338 13 211 0.0 0.0 0.00 0.48 0.48 67 1013.8
20260506013835 13 211 0.0 0.0 0.00 0.48 0.48 67 1014.0
20260506013333 13 219 0.0 0.0 0.00 0.48 0.48 69 1014.1
20260506012829 13 200 0.0 0.0 0.00 0.48 0.48 65 1013.9
20260506012326 14 208 0.0 0.0 0.00 0.48 0.48 65 1014.3
20260506011823 16 242 1.6 3.2 0.00 0.48 0.48 59 1013.9
20260506011320 18 221 0.0 0.0 0.00 0.48 0.48 53 1013.9
20260506010817 19 215 0.0 1.6 0.00 0.48 0.48 49 1014.1
20260506010315 18 207 0.0 0.0 0.00 0.48 0.48 55 1013.9
20260506005812 17 188 1.6 1.6 0.00 0.48 0.48 53 1014.1
20260506005309 17 163 0.0 0.0 0.00 0.48 0.48 46 1014.0
20260506004805 18 139 0.0 1.6 0.00 0.48 0.48 48 1014.0
20260506004303 18 81 3.2 3.2 0.00 0.48 0.48 46 1014.1
20260506003759 18 167 0.0 0.0 0.00 0.48 0.48 43 1014.3
20260506003256 18 341 0.0 1.6 0.00 0.48 0.48 43 1013.9
20260506002751 19 241 3.2 3.2 0.00 0.48 0.48 40 1014.0
20260506002247 19 76 1.6 1.6 0.00 0.48 0.48 40 1014.0
20260506001743 18 151 0.0 1.6 0.00 0.48 0.48 43 1013.9
20260506001241 18 308 1.6 3.2 0.00 0.48 0.48 40 1014.3
20260506000738 18 312 3.2 3.2 0.00 0.48 0.48 46 1014.0
20260506000235 18 216 3.2 4.8 0.00 0.48 0.48 44 1013.9
20260505235732 18 343 1.6 1.6 0.00 0.48 0.48 48 1014.1
20260505235230 18 349 3.2 3.2 0.00 0.48 0.48 43 1014.0
20260505234726 18 7 4.8 4.8 0.00 0.48 0.48 45 1014.1
20260505234224 18 46 1.6 3.2 0.00 0.48 0.48 44 1014.1
20260505233720 18 20 8.0 8.0 0.00 0.48 0.48 44 1014.0
20260505233219 18 209 4.8 9.7 0.00 0.48 0.48 46 1014.3
20260505232715 18 275 3.2 4.8 0.00 0.48 0.48 48 1014.3
20260505232213 18 342 1.6 3.2 0.00 0.48 0.48 47 1014.3
20260505231709 18 332 3.2 3.2 0.00 0.48 0.48 46 1014.1
20260505231208 17 258 1.6 3.2 0.00 0.48 0.48 45 1014.3
20260505230706 18 260 1.6 1.6 0.00 0.48 0.48 48 1014.5
20260505230202 18 44 4.8 4.8 0.00 0.48 0.48 47 1014.4
20260505225659 18 357 3.2 4.8 0.00 0.48 0.48 53 1014.7
20260505225156 17 28 6.4 9.7 0.00 0.48 0.48 50 1014.6
20260505224651 17 12 8.0 9.7 0.00 0.48 0.48 47 1014.6
20260505224149 17 7 1.6 4.8 0.00 0.48 0.48 57 1014.4
20260505223646 17 278 3.2 3.2 0.00 0.48 0.48 49 1014.5
20260505223142 17 313 3.2 4.8 0.00 0.48 0.48 49 1014.6
20260505222633 17 66 3.2 3.2 0.00 0.48 0.48 54 1014.7
20260505222129 17 63 1.6 1.6 0.00 0.48 0.48 50 1014.6
20260505221626 17 245 1.6 1.6 0.00 0.48 0.48 48 1014.7
20260505221123 16 73 4.8 4.8 0.00 0.48 0.48 54 1014.7
20260505220621 16 355 4.8 4.8 0.00 0.48 0.48 51 1014.8
20260505220118 16 25 4.8 8.0 0.00 0.48 0.48 56 1014.7
20260505215616 16 50 6.4 9.7 0.00 0.48 0.48 57 1014.6
20260505215113 16 45 3.2 3.2 0.00 0.48 0.48 56 1015.0
20260505214611 16 53 3.2 4.8 0.00 0.48 0.48 56 1015.2
20260505214108 16 0 6.4 11.3 0.00 0.48 0.48 55 1014.8
20260505213606 16 342 3.2 4.8 0.00 0.48 0.48 61 1015.0
20260505213102 16 2 6.4 8.0 0.00 0.48 0.48 55 1015.2
20260505212558 16 74 6.4 8.0 0.00 0.48 0.48 62 1015.2
20260505212056 15 129 3.2 4.8 0.00 0.48 0.48 60 1015.2
20260505211553 15 68 4.8 4.8 0.00 0.48 0.48 59 1015.3
20260505211050 15 74 3.2 4.8 0.00 0.48 0.48 68 1015.5
20260505210546 14 67 4.8 8.0 0.00 0.48 0.48 62 1015.4
20260505210044 15 97 9.7 11.3 0.00 0.48 0.48 62 1015.4
20260505205541 15 16 1.6 3.2 0.00 0.48 0.48 61 1015.3
20260505205038 15 91 1.6 1.6 0.00 0.48 0.48 71 1015.4
20260505204536 15 359 0.0 1.6 0.00 0.48 0.48 60 1015.4
20260505204033 14 12 4.8 4.8 0.00 0.48 0.48 68 1015.6
20260505203529 13 111 4.8 4.8 0.00 0.48 0.48 68 1015.6
20260505203027 13 73 4.8 9.7 0.00 0.48 0.48 67 1015.9
20260505202523 13 5 4.8 4.8 0.00 0.48 0.48 67 1015.6
20260505202018 13 345 6.4 9.7 0.00 0.48 0.48 72 1015.5
20260505201516 12 88 4.8 4.8 0.00 0.48 0.48 72 1015.8
20260505201013 13 9 1.6 3.2 0.00 0.48 0.48 75 1015.9
20260505200511 13 20 3.2 3.2 0.00 0.48 0.48 72 1015.9
20260505200008 12 292 1.6 1.6 0.00 0.48 0.48 75 1016.1
20260505195504 12 167 1.6 3.2 0.00 0.48 0.48 76 1016.0
20260505195001 12 136 1.6 3.2 0.00 0.48 0.48 75 1016.0
20260505194459 11 149 3.2 4.8 0.00 0.48 0.48 76 1015.8
20260505193958 11 111 6.4 8.0 0.00 0.48 0.48 78 1015.9
20260505193456 11 87 0.0 0.0 0.00 0.48 0.48 78 1016.0
20260505192953 10 172 1.6 3.2 0.00 0.48 0.48 79 1015.8
20260505192452 11 114 1.6 1.6 0.00 0.48 0.48 81 1015.9
20260505191949 11 99 1.6 1.6 0.00 0.48 0.48 81 1015.8
20260505191448 10 129 6.4 8.0 0.00 0.48 0.48 80 1016.0
20260505190944 10 92 0.0 1.6 0.00 0.48 0.48 80 1015.8
20260505190439 10 121 3.2 3.2 0.00 0.48 0.48 82 1015.6
20260505185935 10 173 4.8 4.8 0.00 0.48 0.48 79 1015.6
20260505185433 10 229 0.0 0.0 0.00 0.48 0.48 78 1016.0
20260505184929 10 262 0.0 0.0 0.00 0.48 0.48 80 1015.9
20260505184426 9 274 0.0 0.0 0.00 0.48 0.48 81 1016.0
20260505183922 9 285 0.0 0.0 0.00 0.48 0.48 82 1016.0
20260505183419 8 308 0.0 0.0 0.00 0.48 0.48 83 1016.1
20260505182916 8 312 0.0 0.0 0.00 0.48 0.48 83 1016.0
20260505182413 8 14 0.0 0.0 0.00 0.48 0.48 82 1015.8
20260505181909 8 3 0.0 0.0 0.00 0.48 0.48 84 1015.8
20260505181407 8 349 0.0 0.0 0.00 0.48 0.48 84 1015.9
20260505180903 8 44 0.0 0.0 0.00 0.48 0.48 86 1015.6
20260505180400 8 356 1.6 3.2 0.00 0.48 0.48 84 1015.5
20260505175856 8 305 0.0 0.0 0.00 0.48 0.48 85 1015.6
20260505175353 8 247 0.0 0.0 0.00 0.48 0.48 85 1015.5
20260505174849 8 237 0.0 0.0 0.00 0.48 0.48 85 1015.6
20260505174347 8 286 1.6 1.6 0.00 0.48 0.48 83 1015.2
20260505173843 8 224 0.0 0.0 0.00 0.48 0.48 84 1015.2
20260505173339 8 224 0.0 0.0 0.00 0.48 0.48 85 1015.0
20260505172836 8 224 0.0 0.0 0.00 0.48 0.48 87 1015.3
20260505172334 8 230 0.0 0.0 0.00 0.48 0.48 86 1015.1
20260505171834 8 227 0.0 0.0 0.00 0.48 0.48 88 1015.2
20260505171331 8 233 1.6 1.6 0.00 0.48 0.48 89 1014.7
20260505170827 8 170 0.0 0.0 0.00 0.48 0.48 90 1014.8
20260505170324 8 259 0.0 0.0 0.00 0.48 0.48 91 1015.0
20260505165819 8 241 0.0 1.6 0.00 0.48 0.48 92 1014.5
20260505165315 7 289 4.8 4.8 0.00 0.48 0.48 91 1014.7
20260505164811 7 277 4.8 4.8 0.00 0.48 0.48 92 1014.8
20260505164308 7 268 3.2 3.2 0.00 0.48 0.48 91 1014.7
20260505163806 7 270 1.6 3.2 0.00 0.48 0.48 90 1014.7
20260505163305 7 265 3.2 3.2 0.00 0.48 0.48 90 1014.7
20260505162803 7 261 3.2 3.2 0.00 0.48 0.48 89 1014.5
20260505162259 7 234 0.0 0.0 0.00 0.48 0.48 91 1014.6
20260505161756 7 226 0.0 0.0 0.00 0.48 0.48 91 1014.1
20260505161253 7 246 0.0 0.0 0.00 0.48 0.48 91 1014.3
20260505160750 7 248 0.0 0.0 0.00 0.48 0.48 91 1014.0
20260505160248 7 255 0.0 0.0 0.00 0.48 0.48 92 1013.9
20260505153227 6 157 1.6 1.6 0.00 0.48 0.48 96 1013.8
20260505152724 6 277 0.0 0.0 0.00 0.48 0.48 96 1013.9
20260505152221 6 278 1.6 1.6 0.00 0.48 0.48 96 1013.8
20260505151715 6 247 0.0 0.0 0.00 0.48 0.48 96 1014.0
20260505151213 6 247 0.0 0.0 0.00 0.48 0.48 96 1014.0
20260505150709 6 248 0.0 0.0 0.00 0.48 0.48 96 1014.1
20260505150206 6 249 0.0 0.0 0.00 0.48 0.48 96 1014.0
20260505140639 6 154 0.0 0.0 0.00 0.48 0.48 97 1013.7
20260505140136 6 155 0.0 0.0 0.00 0.48 0.48 97 1013.6
20260505124550 6 174 0.0 0.0 0.00 0.48 0.48 97 1012.3
20260505124046 6 148 0.0 0.0 0.00 0.48 0.48 98 1012.3
20260505123542 6 220 0.0 0.0 0.00 0.48 0.48 97 1012.3
20260505123039 6 221 0.0 0.0 0.00 0.48 0.48 97 1012.4
20260505122536 6 221 0.0 0.0 0.00 0.48 0.48 97 1012.1
20260505122033 6 221 0.0 0.0 0.00 0.48 0.48 97 1012.3
20260505121529 6 280 0.0 0.0 0.13 0.48 0.48 97 1012.0
20260505121026 6 219 0.0 0.0 0.13 0.48 0.48 97 1012.0
20260505120522 6 249 0.0 0.0 0.00 0.46 0.46 97 1012.1
20260505120018 6 243 0.0 0.0 0.18 0.46 0.46 97 1012.1
20260505115513 6 230 0.0 0.0 0.18 0.46 0.46 97 1012.1
20260505115011 6 230 0.0 0.0 0.00 0.43 0.43 97 1012.1
20260505114508 6 226 0.0 0.0 0.13 0.43 0.43 97 1012.1
20260505114004 6 267 0.0 0.0 0.13 0.43 0.43 97 1012.2
20260505113501 6 232 0.0 0.0 0.18 0.41 0.41 97 1012.2
20260505112956 6 230 0.0 0.0 0.18 0.41 0.41 97 1012.1
20260505112453 6 188 0.0 0.0 0.13 0.38 0.38 97 1012.1
20260505111950 6 126 0.0 0.0 0.13 0.38 0.38 97 1012.2
20260505111444 6 134 0.0 0.0 0.00 0.36 0.36 97 1012.0
20260505110941 6 115 0.0 0.0 0.18 0.36 0.36 97 1012.1
20260505110438 6 167 0.0 0.0 0.18 0.36 0.36 97 1012.3
20260505101909 6 162 0.0 0.0 0.13 0.23 0.23 97 1012.4
20260505101403 6 158 0.0 0.0 0.13 0.23 0.23 97 1012.4
20260505100859 6 139 0.0 0.0 0.18 0.20 0.20 97 1012.6
20260505100356 6 129 4.8 4.8 0.18 0.20 0.20 97 1012.8
20260505095852 6 123 3.2 3.2 0.18 0.18 0.18 97 1012.5
20260505095350 6 188 0.0 0.0 0.18 0.18 0.18 97 1012.6
20260505094845 6 206 0.0 0.0 0.13 0.15 0.15 97 1013.3
20260505094342 6 206 0.0 0.0 0.13 0.15 0.15 97 1013.1
20260505093838 6 205 0.0 0.0 0.18 0.13 0.13 97 1013.1
20260505093336 6 205 0.0 0.0 0.18 0.13 0.13 96 1012.5
20260505092833 6 221 0.0 0.0 0.13 0.10 0.10 96 1012.5
20260505092331 6 221 0.0 0.0 0.13 0.10 0.10 96 1012.4
20260505091828 6 223 0.0 0.0 0.18 0.08 0.08 96 1012.8
20260505091326 6 280 0.0 0.0 0.18 0.08 0.08 96 1013.1
20260505090824 6 273 0.0 0.0 0.00 0.05 0.05 96 1013.1
20260505090322 6 230 0.0 0.0 0.13 0.05 0.05 96 1013.1
20260505085818 6 176 0.0 0.0 0.13 0.05 0.05 96 1013.3
20260505085317 6 176 0.0 0.0 0.00 0.03 0.03 96 1013.2
20260505084814 6 176 0.0 0.0 0.00 0.03 0.03 96 1013.2
20260505084312 6 237 0.0 0.0 0.00 0.03 0.03 96 1013.0
20260505083809 6 237 0.0 0.0 0.00 0.03 0.03 96 1012.9
20260505083306 6 153 0.0 0.0 0.00 0.03 0.03 96 1013.1
20260505082803 6 146 0.0 0.0 0.00 0.03 0.03 96 1012.9
20260505082259 6 189 0.0 0.0 0.18 0.03 0.03 96 1012.8
20260505081755 6 164 1.6 3.2 0.18 0.03 0.03 96 1012.8
20260505081252 6 169 0.0 0.0 0.00 0.00 0.00 96 1013.0
20260505080749 6 200 0.0 0.0 0.00 0.00 0.00 96 1013.0
20260505080245 6 163 0.0 0.0 0.00 0.00 0.00 96 1013.3
20260505075740 6 159 0.0 0.0 0.00 0.36 0.36 96 1013.6
20260505075238 6 229 0.0 0.0 0.00 0.36 0.36 96 1013.5
20260505074735 6 236 0.0 0.0 0.00 0.36 0.36 96 1013.3
20260505074232 6 259 1.6 1.6 0.00 0.36 0.36 96 1013.5
20260505073730 6 259 0.0 1.6 0.00 0.36 0.36 96 1013.5
20260505073227 6 288 0.0 1.6 0.00 0.36 0.36 96 1013.3
20260505072724 6 286 0.0 0.0 0.00 0.36 0.36 96 1013.5
20260505072220 6 288 1.6 1.6 0.00 0.36 0.36 96 1013.2
20260505071716 6 284 3.2 3.2 0.00 0.36 0.36 96 1013.2
20260505071213 6 262 0.0 0.0 0.00 0.36 0.36 96 1013.1
20260505070710 6 262 0.0 0.0 0.00 0.36 0.36 96 1013.2
20260505070206 6 263 0.0 1.6 0.00 0.36 0.36 96 1012.9
20260505065703 6 254 0.0 0.0 0.00 0.36 0.36 96 1013.3
20260505065200 6 254 0.0 0.0 0.00 0.36 0.36 96 1013.1
20260505064656 6 252 0.0 0.0 0.00 0.36 0.36 96 1013.1
20260505064155 6 253 0.0 0.0 0.00 0.36 0.36 96 1013.0
20260505063652 6 254 0.0 0.0 0.00 0.36 0.36 96 1012.9
20260505063148 6 242 0.0 0.0 0.13 0.36 0.36 96 1012.9
20260505062644 6 248 0.0 0.0 0.13 0.36 0.36 96 1013.0
20260505062142 6 241 0.0 0.0 0.00 0.33 0.33 95 1012.9
20260505061639 6 250 0.0 0.0 0.18 0.33 0.33 95 1013.0
20260505061137 7 177 0.0 0.0 0.18 0.33 0.33 95 1013.0
20260505060634 7 253 0.0 0.0 0.13 0.30 0.30 95 1012.6
20260505060130 6 257 0.0 0.0 0.13 0.30 0.30 95 1012.9
20260505055626 7 258 0.0 0.0 0.18 0.28 0.28 95 1012.9
20260505055123 7 259 0.0 0.0 0.18 0.28 0.28 94 1013.0
20260505054620 7 263 0.0 0.0 0.13 0.25 0.25 94 1013.1
20260505054118 7 259 0.0 0.0 0.13 0.25 0.25 94 1013.2
20260505053615 7 259 0.0 0.0 0.00 0.23 0.23 93 1013.8
20260505053111 7 263 0.0 0.0 0.18 0.23 0.23 92 1013.8
20260505052608 7 264 1.6 1.6 0.18 0.23 0.23 92 1013.8
20260505052106 7 255 1.6 1.6 0.00 0.20 0.20 91 1013.7
20260505051603 7 187 0.0 0.0 0.00 0.20 0.20 90 1014.0
20260505051101 7 199 0.0 0.0 0.00 0.20 0.20 89 1013.7
20260505050558 7 182 0.0 0.0 0.18 0.20 0.20 89 1013.8
20260505041526 7 140 4.8 4.8 0.00 0.15 0.15 83 1013.2
20260505041024 7 187 1.6 1.6 0.00 0.15 0.15 86 1013.0
20260505040521 7 152 4.8 4.8 0.00 0.15 0.15 84 1013.2
20260505040018 7 213 0.0 0.0 0.00 0.15 0.15 84 1013.5
20260505035514 7 213 0.0 0.0 0.00 0.15 0.15 83 1013.2
20260505035011 7 214 1.6 3.2 0.00 0.15 0.15 82 1013.5
20260505034507 7 132 0.0 0.0 0.00 0.15 0.15 82 1013.2
20260505034005 7 171 0.0 0.0 0.00 0.15 0.15 83 1013.1
20260505033501 7 200 3.2 3.2 0.00 0.15 0.15 83 1013.2
20260505033000 7 178 4.8 4.8 0.00 0.15 0.15 84 1013.3
20260505032457 7 154 3.2 4.8 0.00 0.15 0.15 84 1012.8
20260505031953 7 151 4.8 8.0 0.00 0.15 0.15 85 1013.0
20260505031450 7 179 4.8 8.0 0.00 0.15 0.15 87 1013.0
20260505030947 7 138 3.2 4.8 0.00 0.15 0.15 87 1012.9
20260505030443 7 152 1.6 3.2 0.00 0.15 0.15 87 1013.0
20260505025938 8 132 4.8 8.0 0.00 0.15 0.15 87 1012.3
20260505025435 8 135 8.0 9.7 0.00 0.15 0.15 86 1012.2
20260505024934 8 165 11.3 12.9 0.00 0.15 0.15 86 1012.1
20260505024431 8 171 8.0 11.3 0.00 0.15 0.15 88 1012.1
20260505023928 8 148 3.2 3.2 0.00 0.15 0.15 89 1012.1
20260505023425 8 121 1.6 1.6 0.00 0.15 0.15 88 1012.1
20260505022923 8 110 1.6 1.6 0.00 0.15 0.15 86 1012.2
20260505022421 8 129 3.2 3.2 0.00 0.15 0.15 86 1012.1
20260505021917 8 141 1.6 3.2 0.00 0.15 0.15 84 1012.4
20260505021413 9 173 0.0 0.0 0.00 0.15 0.15 83 1012.8
20260505020909 9 172 0.0 1.6 0.18 0.15 0.15 75 1012.8
20260505020405 9 159 1.6 1.6 0.18 0.15 0.15 77 1012.9